Regional Weather Roundup
Issued by NWS Northern Indiana

Home | Current Version | Previous Version | Graphics & Text | Print | Product List | Glossary On
Versions: 1 2 3 4 5 6 7 8 9 10 11 12 13 14 15 16 17 18 19 20 21 22 23 24 25 26 27 28 29 30 31 32 33 34 35 36 37 38 39 40 41 42 43 44 45 46 47 48 49 50
000
ASUS43 KIWX 201100
RWRIWX

KIWX WEATHER ROUNDUP
NATIONAL WEATHER SERVICE NORTHERN INDIANA
700 AM EDT SAT SEP 20 2014

NOTE: "FAIR" INDICATES FEW OR NO CLOUDS BELOW 12,000 FEET WITH NO
SIGNIFICANT WEATHER AND/OR OBSTRUCTIONS TO VISIBILITY.

* THESE STATIONS ARE NOT UNDER NWS QUALITY CONTROL. THEY ALSO MAY NOT
  REPORT WEATHER SUCH AS PRECIPITATION OR FOG.

INZ001>027-201200-
NORTHERN INDIANA

CITY           SKY/WX    TMP DP  RH WIND       PRES   REMARKS
GARY*          PTCLDY    63  54  72 S14       29.95S
VALPARAISO     MOCLDY    57  52  83 S7        29.99R
SOUTH BEND     MOCLDY    59  51  75 SW9       29.99S
GOSHEN         MOCLDY    58  51  78 S9        29.99F
WARSAW*        MOCLDY    57  52  82 SW5       30.01S
ANGOLA*        CLEAR     57  52  82 SW8       30.01S
FORT WAYNE     MOCLDY    51  49  92 SW6       30.03S
PERU/GRISSOM   MOCLDY    57  57 100 SW8       30.02S

$$
INZ028>050-201200-
CENTRAL INDIANA

CITY           SKY/WX    TMP DP  RH WIND       PRES   REMARKS
LAFAYETTE      PTCLDY    55  52  89 SW3       30.02R
KOKOMO*        MOCLDY    55  48  76 S7        30.04S
MUNCIE*        CLEAR     58  53  84 S6        30.05R
INDIANAPOLIS   MOCLDY    58  53  84 S3        30.04R

$$
MIZ043>046-050>051-056>058-064>065-071>073-077>080-201200-
SOUTHWEST LOWER MICHIGAN

CITY           SKY/WX    TMP DP  RH WIND       PRES   REMARKS
BATTLE CREEK   MOCLDY    57  49  74 SW12      29.97F
BENTON HARBOR  MOCLDY    60  51  72 S10       29.93F
COLDWATER*     MOCLDY    58  52  78 SW6       29.99S
HILLSDALE*     PTCLDY    57  52  82 S5        30.00S
HOLLAND        CLOUDY    67  56  67 SW17G25   29.92F
GRAND RAPIDS   CLOUDY    63  52  67 SW14      29.91F
KALAMAZOO      MOCLDY    57  50  77 S10       29.97F
STURGIS*       MOCLDY    55  52  88 SW8       29.98F
THREE RIVERS*  FAIR      55  51  87 SW6       29.98F

$$
OHZ001>008-015>018-024>025-201200-
NORTHWEST OHIO

CITY           SKY/WX    TMP DP  RH WIND       PRES   REMARKS
DEFIANCE       CLEAR     52  47  83 SW3       30.03S
FINDLAY        CLEAR     58  53  84 S10       30.04R
TOLEDO EXPRESS CLEAR     53  48  83 SW5       30.02S
TOLEDO METCALF CLEAR     53  47  79 SW6       30.04R
LIMA           CLEAR     60  54  80 S12       30.06R

$$
AND FOR LAKE MICHIGAN COASTAL AND OPEN LAKE BUOY OBSERVATIONS

STATION/POSITION TEMP    WIND        PRES    VSBY  WAVE
                 AIR SEA DIR/SP/G                  HT/PER
                 (F)     (DEG/KT/KT) (MB)    (MI)  (FT/S)
CALUMET HARBOR    63     200/ 10/ 12 1012.8R
MICHIGAN CITY     62     160/ 16/ 22   N/A
SAINT JOSEPH      63     170/  6/ 12 1014.6R
SOUTH LAKE BUOY   65 64  210/ 21/ 25 1011.8R         4/ 6
4 MI NW BRIDGMAN  65 65  180/ 16/ 19   N/A           4/ 4
MICHIGAN CITY     64 65  200/ 17/ 23   N/A           3/ 4

$$
&&


USA.gov is the U.S. government's official web portal to all federal, state and local government web resources and services.